ONEWEB-0301, 49090

Orbit data source: Space-Track

ONEWEB-0301, 49090 is a payload satellite owned by One Web (NAA) (UK) in LEO that was launched on Sat, 21 Aug 2021 UTC via a SOYUZ-2-1B launch vehicle from the Tyuratam Missile And Space Complex (TTMTR). Payload-class satellites include a variety of spacecraft equipped with specific instruments for various scientific and technological missions. These include communications satellites like Starlink; space stations such as the ISS; scientific satellites like the Hubble; Earth observation satellites from companies like Planet Labs, Umbra, and HawkEye 360; GPS; miniature CubeSats for education and research; and military/defense satellites.

Loading next visibility...
Identifier
49090, 2021-075R
Orbit
LEO
Country
Flag of UKUK
Related business
Manufacturer
One Web
Mission
Operational Commercial Communications
Bus & Motor
ARROW, Unknown motor
Mass
148 kg wet, ~140 kg dry
Launch date (UTC)
2021-08-21 (5 years ago)
Launch vehicle
SOYUZ-2-1B
Launch site
Tyuratam Missile And Space Complex (TTMTR)
Object type
Payload
Rocket body
Debris
Shape & HBR
Trap Box + 2 Pan, 6.7 m
Radar Cross Section
3.464 m², Large (>1 m²)

Expand to show TLE details & history
Last TLE update: 9 hours ago

TLE from 9 hours ago
0 ONEWEB-0301
1 49090U 21075R   26130.12211208 -.00000475  00000-0 -13545-2 0  9994
2 49090  87.8980 358.2219 0002149  81.8400 278.2972 13.12442250229577
Epoch: 2026-05-10T02:55Z
TLE epoch observation values (Epoch: 2026-05-10T02:55:50.483Z)
Latitude
-0.00006°
Longitude
86.33182°
Altitude
1,216.382 km
Speed
7.246 km/s
True Right ascension
23h 52m 53s
True Declination
0° 00' 00"
Sunlit
Object was in daylight at epoch
Visualization orbit readout
Latitude
Unknown
Longitude
Unknown
Altitude
Unknown
Speed
Unknown
Apparent Right ascension
Unknown
Apparent Declination
Unknown
Sunlit
N/A
Visualization observer readout
Local Sidereal Time
20:35:58
Azimuth
Unknown
Elevation
Unknown
Doppler factor
Unknown
Orbital elements
Apogee altitude
1,212.474 km
Perigee altitude
1,209.212 km
Semi-major axis
7,588.98 km
Eccentricity
0.00021
Inclination
87.898°
RAAN
358.2219°
Arg. of periapsis
81.84°
True anomaly
278.27283°
Mean anomaly
278.2972°
Eccentric anomaly
278.28502°
Mean motion
3.28298 °/min
Orbital period
109.66 mins
BSTAR
-0.0013545
Loading maneuver chart data...
Computing Atmospheric mass density...
Loading historical data...
Loading historical data...
Loading historical data...
Loading historical data...
Loading historical data...
Loading historical data...
Loading historical data...

Documentation

Showing up to 5 results
|